Dewpoint
66 66 64 66 63 63 63 63 67 69 68 68 69 68 69 68 67 66 65 67 68 66
67 66 64 67 67 67 66 66 68 68 68 68 68 68 68 68 66 66 68 65 67 67
66 67 67 69 69 67 68 70 69 69 69 69 69 69 69 68 68 67 67 65 66 66
65 66 67 67 68 69 69 70 70 70 70 70 70 70 71 71 70 68 68 67 66 67
66 65 65 66 66 70 70 70 71 71 70 70 70 70 70 71 68 68 67 68 68 66
66 67 66 66 67 68 70 70 69 70 70 70 69 69 69 70 69 68 67 66 66 66
65 65 66 67 68 67 67 69 68 69 70 69 68 68 69 69 69 69 69 69 69 68
67 66 67 67 68 68 68 68 67 66 67 68 68 67 68 69 69 68 68 68 69 69
69 68 68 69 69 70 69 69 68 68 68 68 67 62 62 65 67 67 67 67 68 69
68 69 69 68 70 70 70 70 69 69 69 69 64 57 57 58 63 66 67 67 68 69
69 69 69 69 69 70 70 70 70 68 69 69 59 56 59 63 65 65 68 67 67 71
67 68 68 68 69 69 69 68 68 67 64 62 57 56 59 63 66 65 64 62 60 64
68 68 68 68 68 68 68 67 63 60 58 58 56 50 52 55 62 66 65 62 56 53
66 66 67 67 67 64 61 59 57 56 56 53 52 47 44 47 57 59 63 62 60 50
Wind_Speed
13 12 13 13 9 10 11 8 8 6 9 10 9 9 7 9 9 11 8 8 7 13
15 13 11 5 11 10 9 7 8 12 11 12 12 12 9 11 9 8 6 9 9 9
17 16 14 10 10 9 10 10 8 11 12 13 13 12 11 12 13 9 11 12 9 8
18 18 16 15 12 12 9 9 10 11 13 13 13 13 11 13 15 8 8 11 10 6
16 16 17 15 13 11 13 12 12 11 12 10 11 13 13 15 15 11 12 14 12 12
17 16 14 13 13 13 12 10 11 10 11 11 10 10 12 11 12 12 13 14 13 14
18 17 16 15 13 14 11 11 12 11 10 9 9 9 9 11 11 11 12 12 9 11
16 16 14 11 12 11 12 12 12 11 11 11 10 8 9 7 10 11 10 9 9 11
15 13 13 14 13 13 14 13 12 9 8 8 8 8 6 4 9 9 10 8 8 8
11 13 14 15 15 15 15 12 11 9 4 4 7 8 7 6 8 9 7 7 7 7
7 7 8 9 14 12 12 10 8 6 0 2 7 6 6 5 6 6 3 8 10 7
4 3 5 6 10 8 8 8 5 8 7 5 4 7 6 6 4 4 1 1 2 3
1 3 4 8 11 10 11 9 12 11 9 10 7 10 11 8 7 8 3 5 5 4
10 4 9 7 3 9 9 11 12 11 10 11 10 12 16 17 13 12 8 5 6 9
Wind_Direction
206 207 217 190 235 206 227 234 163 197 232 217 246 231 226 240 240 233 237 254 276 302
204 226 217 252 200 217 227 244 235 237 225 227 227 234 234 241 249 257 244 256 232 255
210 206 228 221 200 241 231 224 235 229 232 231 235 225 223 247 223 227 252 246 245 253
206 204 208 228 201 225 242 217 230 230 226 224 226 231 236 253 285 237 239 261 276 258
207 217 208 214 227 202 225 219 221 227 228 224 222 223 221 231 243 237 246 239 250 255
205 211 228 222 223 221 215 222 231 219 221 225 232 238 234 227 242 254 261 265 244 246
211 215 217 223 227 227 223 220 225 216 234 254 248 244 235 240 238 245 249 260 287 277
205 212 223 226 232 223 235 227 239 242 243 228 234 260 246 241 250 240 242 254 253 252
203 206 212 219 228 230 231 234 242 241 247 268 268 54 40 348 277 265 260 266 273 271
226 212 213 222 217 219 225 231 230 242 269 275 83 38 10 317 283 285 271 269 267 264
216 217 223 227 240 228 220 213 213 221 267 133 78 21 312 295 278 263 23 34 19 6
194 240 251 228 224 206 215 218 176 142 139 130 80 19 348 319 259 252 310 32 24 24
45 310 275 260 244 242 234 217 156 133 116 111 100 36 26 9 302 260 235 177 130 91
79 63 31 354 139 104 93 90 81 74 83 68 60 48 26 24 4 358 309 192 162 119